N6CTG Weather Reports


Display with metric or nautical units.
time (UTC)temp
F
wind
direction
speed
MPH
gust
MPH
rain 1hr
in
rain 24hr
in
rain mn
in
humidity
%
barometer
mb
20260831222725 87 255 6.0 12.0 0.00 0.00 0.00 41 1009.3
20260831221804 87 252 6.0 12.0 0.00 0.00 0.00 41 1009.4
20260831220904 88 260 6.0 12.0 0.00 0.00 0.00 40 1009.4
20260831220004 88 255 4.0 10.0 0.00 0.00 0.00 38 1009.5
20260831215404 88 247 5.0 10.0 0.00 0.00 0.00 37 1009.5
20260831214504 89 245 5.0 11.0 0.00 0.00 0.00 37 1009.4
20260831213604 88 253 4.0 9.0 0.00 0.00 0.00 38 1009.3
20260831212704 88 258 5.0 11.0 0.00 0.00 0.00 40 1009.4
20260831211804 89 244 7.0 12.0 0.00 0.00 0.00 40 1009.6
20260831210904 89 246 6.0 12.0 0.00 0.00 0.00 41 1009.7
20260831210025 90 236 6.0 12.0 0.00 0.00 0.00 40 1009.7
20260831205404 90 237 6.0 12.0 0.00 0.00 0.00 39 1009.8
20260831204504 90 232 4.0 9.0 0.00 0.00 0.00 38 1009.8
20260831203604 90 240 4.0 10.0 0.00 0.00 0.00 38 1009.7
20260831202704 91 214 3.0 10.0 0.00 0.00 0.00 35 1009.8
20260831201804 90 229 4.0 8.0 0.00 0.00 0.00 34 1009.9
20260831200904 90 220 3.0 8.0 0.00 0.00 0.00 32 1009.9
20260831200025 90 231 4.0 10.0 0.00 0.00 0.00 33 1010.0
20260831195404 90 238 2.0 10.0 0.00 0.00 0.00 34 1010.0
20260831194504 90 232 3.0 8.0 0.00 0.00 0.00 33 1010.1
20260831193604 89 229 4.0 10.0 0.00 0.00 0.00 33 1010.2
20260831192704 90 196 1.0 6.0 0.00 0.00 0.00 29 1010.2
20260831191804 89 231 3.0 9.0 0.00 0.00 0.00 31 1010.3
20260831190925 88 256 3.0 8.0 0.00 0.00 0.00 41 1010.3
20260831190004 88 240 4.0 9.0 0.00 0.00 0.00 40 1010.4
20260831185425 88 226 3.0 9.0 0.00 0.00 0.00 39 1010.4
20260831184504 88 239 3.0 10.0 0.00 0.00 0.00 36 1010.4
20260831183604 87 228 4.0 10.0 0.00 0.00 0.00 32 1010.5
20260831182725 87 197 3.0 6.0 0.00 0.00 0.00 33 1010.5
20260831181804 87 233 2.0 7.0 0.00 0.00 0.00 29 1010.6
20260831180925 86 234 4.0 8.0 0.00 0.00 0.00 29 1010.5
20260831180004 86 234 3.0 8.0 0.00 0.00 0.00 25 1010.5
20260831175404 86 226 3.0 6.0 0.00 0.00 0.00 29 1010.3
20260831174504 85 168 2.0 6.0 0.00 0.00 0.00 33 1010.4
20260831173604 84 181 2.0 6.0 0.00 0.00 0.00 35 1010.4
20260831172704 83 218 2.0 6.0 0.00 0.00 0.00 38 1010.5
20260831171804 82 184 2.0 5.0 0.00 0.00 0.00 37 1010.4
20260831170904 81 210 2.0 5.0 0.00 0.00 0.00 42 1010.3
20260831170004 80 228 2.0 5.0 0.00 0.00 0.00 50 1010.2
20260831165404 79 222 2.0 5.0 0.00 0.00 0.00 50 1010.2
20260831164504 78 226 3.0 6.0 0.00 0.00 0.00 57 1010.2
20260831163604 78 233 2.0 6.0 0.00 0.00 0.00 61 1010.2
20260831162704 77 160 0.0 3.0 0.00 0.00 0.00 67 1010.2
20260831161804 75 217 2.0 4.0 0.00 0.00 0.00 69 1010.2
20260831160904 75 226 0.0 4.0 0.00 0.00 0.00 70 1010.3
20260831160004 74 214 0.0 2.0 0.00 0.00 0.00 70 1010.3
20260831155404 74 0 0.0 0.0 0.00 0.00 0.00 73 1010.3
20260831154504 73 0 0.0 0.0 0.00 0.00 0.00 74 1010.3
20260831153625 72 0 0.0 0.0 0.00 0.00 0.00 72 1010.2
20260831152704 71 127 0.0 1.0 0.00 0.00 0.00 78 1010.2
20260831151804 69 0 0.0 0.0 0.00 0.00 0.00 84 1010.2
20260831150904 68 0 0.0 0.0 0.00 0.00 0.00 87 1010.2
20260831150004 67 0 0.0 0.0 0.00 0.00 0.00 89 1010.1
20260831145404 66 0 0.0 0.0 0.00 0.00 0.00 90 1010.1
20260831144504 66 0 0.0 0.0 0.00 0.00 0.00 91 1010.0
20260831143604 66 0 0.0 0.0 0.00 0.00 0.00 91 1009.9
20260831142704 66 0 0.0 0.0 0.00 0.00 0.00 91 1009.9
20260831141825 66 0 0.0 0.0 0.00 0.00 0.00 92 1009.8
20260831140904 64 0 0.0 0.0 0.00 0.00 0.00 92 1009.6
20260831140004 64 0 0.0 0.0 0.00 0.00 0.00 90 1009.5
20260831135404 64 0 0.0 0.0 0.00 0.00 0.00 90 1009.4
20260831134504 64 0 0.0 0.0 0.00 0.00 0.00 90 1009.4
20260831133625 64 0 0.0 0.0 0.00 0.00 0.00 90 1009.3
20260831132704 64 0 0.0 0.0 0.00 0.00 0.00 90 1009.3
20260831131804 64 0 0.0 0.0 0.00 0.00 0.00 90 1009.1
20260831130904 64 0 0.0 0.0 0.00 0.00 0.00 90 1009.0
20260831130004 64 0 0.0 0.0 0.00 0.00 0.00 90 1009.1
20260831125425 64 0 0.0 0.0 0.00 0.00 0.00 90 1009.0
20260831124504 64 0 0.0 0.0 0.00 0.00 0.00 90 1009.0
20260831123604 64 0 0.0 0.0 0.00 0.00 0.00 90 1009.0
20260831122704 64 0 0.0 0.0 0.00 0.00 0.00 90 1009.1
20260831121804 64 0 0.0 0.0 0.00 0.00 0.00 90 1009.0
20260831120904 64 0 0.0 0.0 0.00 0.00 0.00 90 1008.9
20260831120025 64 0 0.0 0.0 0.00 0.00 0.00 90 1009.0
20260831115404 64 0 0.0 0.0 0.00 0.00 0.00 90 1009.1
20260831114504 64 0 0.0 0.0 0.00 0.00 0.00 90 1009.0
20260831113604 64 0 0.0 0.0 0.00 0.00 0.00 90 1009.0
20260831112704 64 0 0.0 0.0 0.00 0.00 0.00 90 1009.1
20260831111804 64 0 0.0 0.0 0.00 0.00 0.00 90 1009.0
20260831110904 64 0 0.0 0.0 0.00 0.00 0.00 90 1009.1
20260831110025 64 0 0.0 0.0 0.00 0.00 0.00 90 1009.3
20260831105404 64 0 0.0 0.0 0.00 0.00 0.00 90 1009.3
20260831104525 64 0 0.0 0.0 0.00 0.00 0.00 90 1009.3
20260831103625 66 0 0.0 0.0 0.00 0.00 0.00 90 1009.3
20260831102704 66 0 0.0 0.0 0.00 0.00 0.00 90 1009.3
20260831101804 66 0 0.0 0.0 0.00 0.00 0.00 90 1009.2
20260831100925 66 0 0.0 0.0 0.00 0.00 0.00 90 1009.1
20260831100004 65 0 0.0 0.0 0.00 0.00 0.00 90 1009.1
20260831095425 65 245 0.0 1.0 0.00 0.00 0.00 90 1009.1
20260831094504 64 0 0.0 0.0 0.00 0.00 0.00 89 1009.2
20260831093604 64 0 0.0 0.0 0.00 0.00 0.00 88 1009.0
20260831092704 64 0 0.0 0.0 0.00 0.00 0.00 88 1009.0
20260831091804 64 0 0.0 0.0 0.00 0.00 0.00 88 1009.1
20260831090904 64 0 0.0 0.0 0.00 0.00 0.00 88 1009.1
20260831090004 64 0 0.0 0.0 0.00 0.00 0.00 88 1009.0
20260831085404 64 0 0.0 0.0 0.00 0.00 0.00 88 1009.0
20260831084504 65 0 0.0 0.0 0.00 0.00 0.00 88 1009.0
20260831083604 65 0 0.0 0.0 0.00 0.00 0.00 88 1009.1
20260831082704 65 0 0.0 0.0 0.00 0.00 0.00 88 1009.1
20260831081804 66 0 0.0 0.0 0.00 0.00 0.00 87 1009.2
20260831080904 66 0 0.0 0.0 0.00 0.00 0.00 87 1009.1
20260831080004 66 0 0.0 0.0 0.00 0.00 0.00 87 1009.2
20260831075404 66 0 0.0 0.0 0.00 0.00 0.00 87 1009.2
20260831074504 66 0 0.0 0.0 0.00 0.00 0.00 87 1009.2
20260831073604 66 0 0.0 0.0 0.00 0.00 0.00 86 1009.2
20260831072704 67 0 0.0 0.0 0.00 0.00 0.00 86 1009.4
20260831071804 67 0 0.0 0.0 0.00 0.00 0.00 86 1009.3
20260831070904 67 0 0.0 0.0 0.00 0.00 0.00 85 1009.4
20260831070004 67 0 0.0 0.0 0.00 0.00 0.00 85 1009.3
20260831065404 68 0 0.0 0.0 0.00 0.00 0.00 85 1009.3
20260831064504 68 0 0.0 0.0 0.00 0.00 0.00 84 1009.3
20260831063604 68 0 0.0 0.0 0.00 0.00 0.00 84 1009.3
20260831062725 68 0 0.0 0.0 0.00 0.00 0.00 83 1009.3
20260831061804 69 0 0.0 0.0 0.00 0.00 0.00 83 1009.2
20260831060925 69 0 0.0 0.0 0.00 0.00 0.00 82 1009.1
20260831060004 69 0 0.0 0.0 0.00 0.00 0.00 82 1009.1
20260831055404 70 0 0.0 0.0 0.00 0.00 0.00 82 1009.1
20260831054504 70 245 0.0 1.0 0.00 0.00 0.00 81 1009.1
20260831053604 70 0 0.0 0.0 0.00 0.00 0.00 80 1009.0
20260831052704 70 246 0.0 1.0 0.00 0.00 0.00 80 1009.0
20260831051804 71 254 0.0 1.0 0.00 0.00 0.00 79 1009.0
20260831050904 71 253 0.0 2.0 0.00 0.00 0.00 77 1008.9
20260831050004 72 228 0.0 1.0 0.00 0.00 0.00 76 1008.9
20260831045404 72 0 0.0 0.0 0.00 0.00 0.00 75 1008.9
20260831044504 72 0 0.0 0.0 0.00 0.00 0.00 75 1008.8
20260831043625 73 0 0.0 0.0 0.00 0.00 0.00 74 1008.8
20260831042704 73 0 0.0 0.0 0.00 0.00 0.00 73 1008.8
20260831041804 73 0 0.0 0.0 0.00 0.00 0.00 73 1008.6
20260831040904 74 0 0.0 0.0 0.00 0.00 0.00 72 1008.6
20260831040004 74 0 0.0 0.0 0.00 0.00 0.00 71 1008.4
20260831035404 74 0 0.0 0.0 0.00 0.00 0.00 70 1008.4
20260831034504 75 0 0.0 0.0 0.00 0.00 0.00 68 1008.3
20260831033625 75 0 0.0 0.0 0.00 0.00 0.00 67 1008.1
20260831032704 76 0 0.0 0.0 0.00 0.00 0.00 67 1008.0
20260831031804 76 0 0.0 0.0 0.00 0.00 0.00 66 1007.9
20260831030904 76 0 0.0 0.0 0.00 0.00 0.00 66 1007.9
20260831030004 77 135 0.0 1.0 0.00 0.00 0.00 66 1007.8
20260831025404 77 148 0.0 2.0 0.00 0.00 0.00 65 1007.8
20260831024504 78 220 0.0 3.0 0.00 0.00 0.00 64 1007.8
20260831023625 78 219 0.0 3.0 0.00 0.00 0.00 63 1007.9
20260831022704 79 0 0.0 0.0 0.00 0.00 0.00 62 1007.7
20260831021804 79 252 0.0 1.0 0.00 0.00 0.00 62 1007.7
20260831020904 80 250 1.0 3.0 0.00 0.00 0.00 61 1007.5
20260831020004 80 245 1.0 3.0 0.00 0.00 0.00 60 1007.5
20260831015404 81 248 1.0 4.0 0.00 0.00 0.00 59 1007.4
20260831014525 81 245 2.0 6.0 0.00 0.00 0.00 59 1007.5
20260831013604 82 252 3.0 6.0 0.00 0.00 0.00 57 1007.3
20260831012704 83 260 2.0 6.0 0.00 0.00 0.00 56 1007.4
20260831011804 84 248 3.0 9.0 0.00 0.00 0.00 54 1007.4
20260831010904 85 243 4.0 8.0 0.00 0.00 0.00 52 1007.2
20260831010004 86 244 3.0 8.0 0.00 0.00 0.00 49 1007.3
20260831005404 86 241 4.0 8.0 0.00 0.00 0.00 48 1007.3
20260831004504 88 236 4.0 8.0 0.00 0.00 0.00 46 1007.2
20260831003604 88 230 4.0 9.0 0.00 0.00 0.00 42 1007.2
20260831002704 89 217 3.0 8.0 0.00 0.00 0.00 41 1007.2
20260831001804 89 230 5.0 10.0 0.00 0.00 0.00 40 1007.2
20260831000904 90 230 4.0 10.0 0.00 0.00 0.00 39 1007.2
20260831000004 90 225 4.0 8.0 0.00 0.00 0.00 37 1007.2
20260830235404 90 226 5.0 11.0 0.00 0.00 0.00 37 1007.2
20260830234504 91 230 5.0 9.0 0.00 0.00 0.00 35 1007.1
20260830233604 91 230 5.0 11.0 0.00 0.00 0.00 34 1007.2
20260830232704 91 222 5.0 11.0 0.00 0.00 0.00 33 1007.2
20260830231804 93 221 4.0 11.0 0.00 0.00 0.00 31 1007.2
20260830230904 93 204 4.0 9.0 0.00 0.00 0.00 30 1007.2
20260830230004 93 207 4.0 9.0 0.00 0.00 0.00 29 1007.3
20260830225404 93 159 4.0 9.0 0.00 0.00 0.00 28 1007.2
20260830224504 94 176 4.0 8.0 0.00 0.00 0.00 26 1007.2
20260830223604 94 186 4.0 11.0 0.00 0.00 0.00 25 1007.4